Flag for Canada Weather past 2 weeks in Lloydminster, Alberta, Canada

Now
34 °F

Passing clouds.


Feels Like: 26 °F
Forecast: 36 / 61 °F
Wind: 10 mph from South

Location: Lloydminister

Current Time: Apr 21, 2015 at 1:22:25 AM

Latest Report: Apr 21, 2015 at 1:00 AM


Visibility: 9 mi

Pressure: 29.96 "Hg

Humidity: 81%

Dew point: 28 °F

Location of LloydminsterLocation

Historic Weather in Lloydminster — Graph

°F

Lloydminster temperature yesterday

Maximum temperature yesterday: 61 °F (at 2:00 PM)
Minimum temperature yesterday: 36 °F (at 12:00 AM)
Average temperature yesterday: 48 °F

Past Weeks' High & Low Weather Summary

 TemperatureHumidityPressure
High66 °F (Apr 10, 5:00 PM)100% (Apr 7, 4:55 AM)30.31 "Hg (Apr 7, 4:55 AM)
Low21 °F (Apr 6, 4:00 AM)14% (Apr 13, 12:00 PM)29.25 "Hg (Apr 11, 1:00 PM)
Average42 °F53%29.94 "Hg
* Reported Midnight between Apr 5 and Apr 6 — Midnight between Apr 20 and Apr 21, Lloydminster, Weather by CustomWeather, © 2015

Note: Actual official high and low records may vary slightly from our data, if they occured in-between our weather recording intervals... More about our weather records

Advertising

Lloydminster weather history for previous 24 hours

 ConditionsComfort  
Time TempWeatherWind HumidityBarometerVisibility
12:00 AM
Tue, Apr 21
37 °FClear.17 mph70%29.96 "Hg9 mi
11:00 PM
Mon, Apr 20
37 °FClear.13 mph70%29.95 "Hg9 mi
10:00 PM41 °FPassing clouds.12 mph57%29.93 "Hg15 mi
9:00 PM46 °FScattered clouds.13 mph46%29.89 "Hg15 mi
8:00 PM54 °FScattered clouds.18 mph33%29.86 "Hg15 mi
7:00 PM59 °FPartly sunny.15 mph23%29.83 "Hg15 mi
6:00 PM61 °FBroken clouds.14 mph22%29.82 "Hg15 mi
5:00 PM61 °FScattered clouds.13 mph20%29.82 "Hg15 mi
4:00 PM61 °FScattered clouds.18 mph23%29.82 "Hg15 mi
3:00 PM61 °FPassing clouds.15 mph20%29.83 "Hg15 mi
2:00 PM61 °FPassing clouds.13 mph20%29.85 "Hg15 mi
1:00 PM59 °FPassing clouds.7 mph23%29.86 "Hg15 mi
12:00 PM59 °FPassing clouds.13 mph21%29.88 "Hg15 mi
11:00 AM55 °FPassing clouds.9 mph24%29.90 "Hg15 mi
10:00 AM52 °FPassing clouds.14 mph28%29.92 "Hg15 mi
9:00 AM48 °FPassing clouds.12 mph34%29.94 "Hg15 mi
8:00 AM41 °FPassing clouds.10 mph45%29.95 "Hg15 mi
7:00 AM36 °FPassing clouds.9 mph56%29.97 "Hg15 mi
6:00 AM39 °FOvercast.10 mph48%29.98 "Hg9 mi
5:00 AM39 °FOvercast.12 mph48%29.99 "Hg9 mi
4:00 AM37 °FOvercast.8 mph56%30.01 "Hg9 mi
3:00 AM37 °FOvercast.8 mph60%30.03 "Hg9 mi
2:00 AM36 °FPassing clouds.9 mph60%30.05 "Hg9 mi
1:00 AM37 °FOvercast.10 mph60%30.06 "Hg9 mi
Weather by CustomWeather, © 2015

See weather overviewHow to use our weather pages